Main page
METAR-TAF:

METAR-TAF

Airports :

Litchfield Municipal Airport

Litchfield, Illinois, United States

latitude: 39-09-44N, longitude: 089-40-28W, elevation: 689 ft

Current weather observation

The report was made 23 minutes ago, at 17:55 UTC
Calm wind
Temperature 70°F
Humidity 56%
Pressure 29.93 in. Hg
Visibility: 10 miles
Clear sky

METAR: K3LF 251755Z AUTO 00000KT 10SM CLR 21/12 A2993 RMK AO2 T02110115 10211 20158

Time: 13:18 (18:18 UTC)


TAF: missing

Weather observations and forecasts of more than 4000 airports (METAR and TAF reports).

The available stations are represented by yellow and red dots on the map.

Hover mouse over dot to see the name of the station.

Then click to see weather observations and forecasts.

To change the map : click on the green buttons with a black cross to zoom in, on the green button with a dash to zoom out, or on the green arrows for adjacent maps.


METAR-TAF: